This is the latest recevied weather packets stored in our database for station/object W7TTE. If no packets are shown the sender has not sent any weather packets the latest 10 day(s).
| Time | Temp. | Humidity | Pressure | Rain* | Wind** | Luminosity | Snow |
|---|---|---|---|---|---|---|---|
| 1777303933 | 18.89° C | 33% | 1016.7 hPa | 0 mm | - | 359 W/m² | - |
| 1777303630 | 18.89° C | 33% | 1016.5 hPa | 0 mm | - | 337 W/m² | - |
| 1777303328 | 18.89° C | 34% | 1016.7 hPa | 0 mm | - | 328 W/m² | - |
| 1777303024 | 18.33° C | 34% | 1016.3 hPa | 0 mm | - | 311 W/m² | - |
| 1777302722 | 18.33° C | 33% | 1016.6 hPa | 0 mm | - | 296 W/m² | - |
| 1777302420 | 18.33° C | 34% | 1016.5 hPa | 0 mm | - | 280 W/m² | - |
| 1777302117 | 17.78° C | 34% | 1016.2 hPa | 0 mm | - | 265 W/m² | - |
| 1777301815 | 17.78° C | 34% | 1016.5 hPa | 0 mm | - | 248 W/m² | - |
| 1777301513 | 17.78° C | 34% | 1016.3 hPa | 0 mm | - | 233 W/m² | - |
| 1777301209 | 17.78° C | 36% | 1016.6 hPa | 0 mm | - | 219 W/m² | - |
| 1777300906 | 17.22° C | 36% | 1016.2 hPa | 0 mm | - | 203 W/m² | - |
| 1777300604 | 17.22° C | 37% | 1016.2 hPa | 0 mm | - | 183 W/m² | - |
| 1777300301 | 17.22° C | 38% | 1016.3 hPa | 0 mm | - | 174 W/m² | - |
| 1777299998 | 16.67° C | 38% | 1016.3 hPa | 0 mm | - | 160 W/m² | - |
| 1777299694 | 16.67° C | 39% | 1016.1 hPa | 0 mm | - | 148 W/m² | - |
| 1777299392 | 16.11° C | 40% | 1016.2 hPa | 0 mm | - | 134 W/m² | - |
| 1777299090 | 15.56° C | 41% | 1016.1 hPa | 0 mm | - | 121 W/m² | - |
| 1777298787 | 15.56° C | 41% | 1015.9 hPa | 0 mm | - | 46 W/m² | - |
| 1777298483 | 15.56° C | 41% | 1015.8 hPa | 0 mm | - | 43 W/m² | - |
| 1777298180 | 15° C | 41% | 1015.7 hPa | 0 mm | - | 41 W/m² | - |
| 1777297875 | 15° C | 41% | 1015.6 hPa | 0 mm | - | 39 W/m² | - |
| 1777297573 | 14.44° C | 41% | 1015.6 hPa | 0 mm | - | 37 W/m² | - |
| 1777297269 | 14.44° C | 41% | 1015.4 hPa | 0 mm | - | 35 W/m² | - |
| 1777296967 | 13.89° C | 42% | 1015.6 hPa | 0 mm | - | 33 W/m² | - |
| 1777296663 | 13.89° C | 42% | 1015.6 hPa | 0 mm | - | 30 W/m² | - |
* Rain latest hour (hover to see other rain measurements)
** Current wind speed in m/s (hover to see current wind gust speed)